This demonstration page uses our WeatherBlox Daily Observations layout. Learn more.

Left ArrowRight Arrow

39.12711, -84.51439

Hourly Observations for May 29, 2018

Temp ( °F °C ) Dew Point ( °F °C ) Humidity (%) Winds ( mph kmh ) Pressure ( in mb ) Visibility ( mi km ) Precip ( " mm )
12:53 am 00:53 Clear 71 21.7 67 19.4 87 87 Calm 29.94 1014 10 16 0.00 0.00
1:53 am 01:53 Clear 70 21.1 67 19.4 90 90 Calm 29.93 1014 10 16 0.00 0.00
2:53 am 02:53 Clear 70 21.1 68 20 93 93 Calm 29.93 1013 10 16 0.00 0.00
3:53 am 03:53 Clear 69 20.6 68 20 96 96 N 3 6 29.92 1013 10 16 0.00 0.00
4:53 am 04:53 Clear 70 21.1 68 20 93 93 Calm 29.91 1013 10 16 0.00 0.00
5:53 am 05:53 Clear 70 21.1 68 20 93 93 ENE 5 7 29.91 1013 10 16 0.00 0.00
6:53 am 06:53 Sunny 66 18.9 66 18.9 100 100 Calm 29.93 1014 10 16 0.00 0.00
7:53 am 07:53 Mostly Cloudy 71 21.7 69 20.6 94 94 NE 5 7 29.93 1014 10 16 0.00 0.00
8:53 am 08:53 Cloudy 73 22.8 70 21.1 90 90 NNE 6 9 29.94 1014 10 16 0.00 0.03
9:53 am 09:53 Cloudy with Light Rain 73 22.8 69 20.6 87 87 VRB 5 7 29.95 1014 10 16 0.01 0.25
10:53 am 10:53 Mostly Cloudy with Light Rain 75 23.9 70 21.1 84 84 ENE 7 11 29.94 1014 10 16 0.02 0.51
11:53 am 11:53 Mostly Cloudy 79 26.1 70 21.1 74 74 NE 12 19 29.93 1013 10 16 0.00 0.03
12:53 pm 12:53 Partly Cloudy 83 28.3 72 22.2 70 70 NE 13 20 29.91 1013 10 16 0.00 0.00
1:53 pm 13:53 Mostly Sunny 84 28.9 70 21.1 63 63 E 12 19 29.89 1012 10 16 0.00 0.00
2:53 pm 14:53 Mostly Sunny 85 29.4 70 21.1 61 61 E 14 22 29.87 1012 10 16 0.00 0.00
3:53 pm 15:53 Partly Cloudy 86 30 71 21.7 61 61 ESE 9 15 29.84 1011 10 16 0.00 0.00
4:53 pm 16:53 Partly Cloudy 85 29.4 70 21.1 61 61 E 12 19 29.83 1010 10 16 0.00 0.00
5:53 pm 17:53 Mostly Sunny 86 30 71 21.7 61 61 ESE 6 9 29.81 1010 10 16 0.00 0.00
6:53 pm 18:53 Partly Cloudy 84 28.9 71 21.7 65 65 E 7 11 29.81 1010 10 16 0.00 0.00
7:53 pm 19:53 Partly Cloudy with Light Rain 81 27.2 72 22.2 74 74 E 7 11 29.82 1010 10 16 0.00 0.03
8:53 pm 20:53 Cloudy 79 26.1 72 22.2 79 79 NE 5 7 29.82 1010 10 16 0.00 0.03
9:53 pm 21:53 Cloudy 78 25.6 73 22.8 85 85 NNE 6 9 29.82 1010 10 16 0.00 0.00
10:53 pm 22:53 Mostly Cloudy 77 25 73 22.8 88 88 NE 6 9 29.81 1009 10 16 0.00 0.00
11:53 pm 23:53 Clear 76 24.4 72 22.2 88 88 NE 5 7 29.80 1009 10 16 0.00 0.00

Powered by AerisWeather